Orbital Elements at Epoch 2459045.5 (2020-Jul-15.0) TDB
Reference: JPL 18 (heliocentric ecliptic J2000)
Element | Value | Uncertainty (1-sigma) | Units |
e | 1.000430054525629 | 5.4876e-05 | |
a | -7802.414622507355 | 995.5 | au |
q | 3.35546371924359 | 5.829e-05 | au |
i | 142.3034091461101 | 5.5771e-05 | deg |
node | 226.5546387379034 | 0.00036255 | deg |
peri | 341.7029785374598 | 0.0022129 | deg |
M | -.0003968068957667175 | 7.593e-05 | deg |
tp | 2459322.971686949401 (2021-Apr-18.47168695) | 0.0090046 | TDB |
period | n/a n/a | n/a n/a | d yr |
n | 1.430080669236275E-6 | 2.7369e-07 | deg/d |
Q | n/a | n/a | au |
|
| | Orbit Determination Parameters
Additional Information
|